Mount Pleasant, MI

1:55 AM EDT on March 24, 2017 (GMT -0400)
Mount Pleasant Municipal

Weather History for KMOP - September, 2013

Change the Weather History Date:

Thursday, September 26, 2013

  Actual Average (KAMN) Record (KAMN)
Temperature  
Mean Temperature 58 °F -  
Max Temperature 74 °F 67 °F 87 °F (1998)
Min Temperature 43 °F 46 °F 31 °F (1966)
Degree Days  
Heating Degree Days 6    
Growing Degree Days 8 (Base 50)    
Moisture  
Dew Point 48 °F    
Average Humidity 76    
Maximum Humidity 96    
Minimum Humidity 30    
Precipitation  
Precipitation 0.00 in - - ()
Sea Level Pressure  
Sea Level Pressure 30.10 in    
Wind  
Wind Speed 1 mph (East)    
Max Wind Speed 6 mph    
Max Gust Speed -    
Visibility 6 miles    
Events Fog    
Averages and records for this station are not official NWS values.
T = Trace of Precipitation, MM = Missing Value Source: NWS Daily Summary

Daily Weather History Graph

Daily Weather History Graph

Search for Another Location

Airport or City:

Trip Planner

Search our weather history database for the weather conditions in past years. The results will help you decide how hot, cold, wet, or windy it might be!

Date:

Astronomy

Sep. 26, 2013 Rise Set
Actual Time 7:31 AM EDT 7:28 PM EDT
Civil Twilight 7:02 AM EDT 7:57 PM EDT
Nautical Twilight 6:29 AM EDT 8:30 PM EDT
Astronomical Twilight 5:54 AM EDT 9:04 PM EDT
Moon No Moon Rise 2:31 PM EDT (9/26)
Length of Visible Light 12h 54m
Length of Day
11h 57m
Waning Gibbous, 55% of the Moon is Illuminated
Sep 26
Waning Gibbous
Sep 26
Last Quarter
Oct 4
New
Oct 11
First Quarter
Oct 18
Full

Hourly Weather History & Observations

Time (EDT) Temp. Dew Point Humidity Pressure Visibility Wind Dir Wind Speed Gust Speed Precip Events Conditions
12:17 AM 46.0 °F 44.6 °F 95% 30.03 in 2.5 mi Calm Calm - N/A   Clear
12:37 AM 45.7 °F 44.2 °F 95% 30.03 in 1.2 mi Calm Calm - N/A   Mist
12:57 AM 45.1 °F 43.7 °F 95% 30.03 in 0.2 mi Calm Calm - N/A Fog Fog
1:17 AM 44.4 °F 43.0 °F 95% 30.03 in 0.5 mi Calm Calm - N/A Fog Fog
1:37 AM 44.2 °F 42.8 °F 95% 30.03 in 0.2 mi Calm Calm - N/A Fog Fog
1:57 AM 44.4 °F 43.0 °F 95% 30.04 in 0.5 mi Calm Calm - N/A Fog Fog
2:17 AM 43.5 °F 42.1 °F 95% 30.04 in 0.5 mi Calm Calm - N/A Fog Fog
2:37 AM 44.8 °F 43.7 °F 96% 30.05 in 0.2 mi Calm Calm - N/A Fog Fog
2:57 AM 45.0 °F 43.7 °F 95% 30.04 in 0.2 mi Calm Calm - N/A Fog Fog
3:17 AM 45.0 °F 43.7 °F 95% 30.05 in 0.2 mi Calm Calm - N/A Fog Fog
3:37 AM 46.6 °F 45.3 °F 95% 30.06 in 0.5 mi Calm Calm - N/A Fog Fog
3:57 AM 46.8 °F 45.5 °F 95% 30.06 in 0.2 mi Calm Calm - N/A Fog Fog
4:17 AM 46.4 °F 45.0 °F 95% 30.06 in 0.2 mi Calm Calm - N/A Fog Fog
4:37 AM 46.8 °F 45.5 °F 95% 30.06 in 0.2 mi Calm Calm - N/A Fog Fog
4:57 AM 47.7 °F 46.4 °F 95% 30.07 in 0.2 mi Calm Calm - N/A Fog Fog
5:17 AM 48.2 °F 46.8 °F 95% 30.08 in 0.5 mi Calm Calm - N/A Fog Fog
5:37 AM 48.6 °F 47.5 °F 96% 30.08 in 0.2 mi Calm Calm - N/A Fog Fog
5:57 AM 49.5 °F 48.4 °F 96% 30.09 in 0.2 mi Calm Calm - N/A Fog Fog
6:17 AM 50.0 °F 48.6 °F 95% 30.09 in 0.2 mi Calm Calm - N/A Fog Fog
6:37 AM 50.0 °F 48.6 °F 95% 30.09 in 0.2 mi Calm Calm - N/A Fog Fog
6:57 AM 50.4 °F 49.1 °F 95% 30.09 in 0.2 mi North 3.5 mph - N/A Fog Fog
7:17 AM 50.4 °F 49.3 °F 96% 30.10 in 0.2 mi North 3.5 mph - N/A Fog Fog
7:37 AM 50.5 °F 49.5 °F 96% 30.11 in 0.2 mi Calm Calm - N/A Fog Fog
7:57 AM 50.7 °F 49.5 °F 95% 30.11 in 0.2 mi NNE 3.5 mph - N/A Fog Fog
8:18 AM 50.9 °F 49.6 °F 95% 30.11 in 0.2 mi Calm Calm - N/A Fog Fog
8:37 AM 50.0 °F 48.7 °F 95% 30.11 in 0.2 mi Calm Calm - N/A Fog Fog
8:57 AM 49.6 °F 48.6 °F 96% 30.12 in 0.2 mi Calm Calm - N/A Fog Fog
9:18 AM 50.7 °F 49.5 °F 95% 30.14 in 0.2 mi Calm Calm - N/A Fog Fog
9:37 AM 50.5 °F 49.5 °F 96% 30.14 in 0.2 mi Calm Calm - N/A Fog Fog
9:57 AM 52.0 °F 50.9 °F 96% 30.15 in 2.0 mi Calm Calm - N/A   Overcast
10:17 AM 52.5 °F 51.4 °F 96% 30.14 in 2.0 mi Calm Calm - N/A   Overcast
10:37 AM 54.5 °F 53.4 °F 96% 30.14 in 10.0 mi Calm Calm - N/A   Scattered Clouds
10:57 AM 56.3 °F 54.3 °F 93% 30.13 in 10.0 mi Calm Calm - N/A   Clear
11:17 AM 58.1 °F 55.6 °F 91% 30.13 in 10.0 mi ESE 4.6 mph - N/A   Scattered Clouds
11:37 AM 59.5 °F 55.8 °F 87% 30.13 in 10.0 mi East 3.5 mph - N/A   Scattered Clouds
11:57 AM 61.2 °F 56.5 °F 85% 30.12 in 10.0 mi SSE 3.5 mph - N/A   Clear
12:17 PM 62.4 °F 56.3 °F 80% 30.12 in 10.0 mi ESE 5.8 mph - N/A   Clear
12:37 PM 63.3 °F 55.8 °F 76% 30.12 in 10.0 mi SE 3.5 mph - N/A   Clear
12:57 PM 64.8 °F 55.4 °F 72% 30.11 in 10.0 mi Calm Calm - N/A   Clear
1:17 PM 67.3 °F 54.0 °F 62% 30.11 in 10.0 mi Calm Calm - N/A   Clear
1:37 PM 69.4 °F 52.5 °F 55% 30.11 in 10.0 mi SE 4.6 mph - N/A   Clear
1:57 PM 70.2 °F 49.8 °F 48% 30.11 in 10.0 mi Calm Calm - N/A   Clear
2:17 PM 71.1 °F 48.7 °F 45% 30.10 in 10.0 mi ENE 3.5 mph - N/A   Clear
2:37 PM 71.8 °F 47.5 °F 42% 30.10 in 10.0 mi Calm Calm - N/A   Clear
2:57 PM 72.1 °F 45.1 °F 38% 30.10 in 10.0 mi Calm Calm - N/A   Clear
3:17 PM 72.5 °F 46.8 °F 40% 30.10 in 10.0 mi Calm Calm - N/A   Clear
3:37 PM 72.7 °F 45.7 °F 38% 30.10 in 10.0 mi Calm Calm - N/A   Clear
3:57 PM 73.4 °F 44.4 °F 35% 30.10 in 10.0 mi Calm Calm - N/A   Clear
4:17 PM 73.6 °F 42.3 °F 32% 30.10 in 10.0 mi East 4.6 mph - N/A   Clear
4:38 PM 74.1 °F 42.8 °F 32% 30.10 in 10.0 mi Calm Calm - N/A   Clear
4:57 PM 74.3 °F 42.4 °F 32% 30.10 in 10.0 mi Calm Calm - N/A   Clear
5:17 PM 74.3 °F 41.2 °F 30% 30.10 in 10.0 mi ESE 3.5 mph - N/A   Clear
5:38 PM 73.8 °F 42.1 °F 32% 30.10 in 10.0 mi Calm Calm - N/A   Clear
5:57 PM 73.6 °F 41.4 °F 31% 30.11 in 10.0 mi Calm Calm - N/A   Clear
6:17 PM 73.0 °F 42.3 °F 33% 30.11 in 10.0 mi East 3.5 mph - N/A   Clear
6:38 PM 72.5 °F 43.7 °F 36% 30.11 in 7.0 mi Calm Calm - N/A   Clear
6:57 PM 66.7 °F 49.8 °F 54% 30.11 in 10.0 mi Calm Calm - N/A   Clear
7:17 PM 63.3 °F 50.2 °F 62% 30.12 in 10.0 mi East 3.5 mph - N/A   Clear
7:38 PM 60.6 °F 49.5 °F 67% 30.12 in 10.0 mi Calm Calm - N/A   Clear
7:57 PM 59.7 °F 50.0 °F 70% 30.12 in 10.0 mi Calm Calm - N/A   Clear
8:17 PM 58.1 °F 50.0 °F 74% 30.12 in 7.0 mi East 4.6 mph - N/A   Clear
8:38 PM 55.6 °F 49.1 °F 79% 30.13 in 7.0 mi East 4.6 mph - N/A   Clear
8:57 PM 54.9 °F 47.5 °F 76% 30.13 in 7.0 mi East 5.8 mph - N/A   Clear
9:17 PM 55.4 °F 47.5 °F 75% 30.14 in 7.0 mi East 4.6 mph - N/A   Clear
9:38 PM 54.7 °F 47.5 °F 77% 30.14 in 7.0 mi East 3.5 mph - N/A   Clear
9:57 PM 54.9 °F 47.3 °F 76% 30.14 in 10.0 mi Calm Calm - N/A   Clear
10:17 PM 54.9 °F 46.9 °F 75% 30.14 in 5.0 mi East 3.5 mph - N/A   Haze
10:37 PM 53.8 °F 47.1 °F 78% 30.15 in 10.0 mi Calm Calm - N/A   Clear
10:57 PM 54.1 °F 48.4 °F 81% 30.15 in 10.0 mi Calm Calm - N/A   Clear
11:17 PM 53.1 °F 48.7 °F 85% 30.15 in 10.0 mi Calm Calm - N/A   Clear
11:37 PM 53.1 °F 49.5 °F 88% 30.15 in 10.0 mi Calm Calm - N/A   Clear
11:57 PM 52.5 °F 49.8 °F 91% 30.15 in 10.0 mi Calm Calm - N/A   Clear